Home   Weather   Darwin   Past weeks

Flag for Australia Past Weather in Darwin, Northern Territory, Australia — Yesterday and Last 2 Weeks

Now
77 °F

Passing clouds.


Feels Like: 78 °F
Forecast: 76 / 86 °F
Wind: 5 mph from Southeast

Location: Darwin Airport

Current Time: Sep 1, 2016 at 7:22:42 AM

Latest Report: Sep 1, 2016 at 6:30 AM


Visibility: N/A

Pressure: 29.89 "Hg

Humidity: 89%

Dew Point: 73 °F

Location of DarwinLocation

Past Weather in Darwin — Graph

°F

Darwin Temperature Yesterday

Maximum temperature yesterday: 93 °F (at 1:30 PM)
Minimum temperature yesterday: 75 °F (at 2:00 AM)
Average temperature yesterday: 82 °F

High & Low Weather Summary for the Past Weeks

 TemperatureHumidityPressure
High93 °F (Aug 31, 1:30 PM)100% (Aug 18, 7:00 AM)30.01 "Hg (Aug 18, 7:00 AM)
Low66 °F (Aug 17, 5:30 AM)16% (Aug 27, 11:30 AM)29.71 "Hg (Aug 22, 4:00 PM)
Average80 °F64%29.87 "Hg
* Reported Aug 17 5:30 AM — Sep 1 5:30 AM, Darwin, Weather by CustomWeather, © 2016

Note: Actual official high and low records may vary slightly from our data, if they occured in-between our weather recording intervals... More about our weather records

Advertising

Darwin Weather History for the Previous 24 Hours

Scroll right to see more
 ConditionsComfort  
Time TempWeatherWind HumidityBarometerVisibility
5:30 AM
Thu, Sep 1
77 °FScattered showers. Partly cloudy.6 mph89%29.89 "HgN/A
5:00 AM75 °FPassing clouds.6 mph94%29.89 "HgN/A
4:30 AM75 °FClear.3 mph94%29.89 "HgN/A
4:00 AM75 °FClear.5 mph89%29.89 "HgN/A
3:30 AM77 °FClear.5 mph89%29.89 "HgN/A
3:00 AM77 °FClear.3 mph89%29.89 "HgN/A
2:30 AM79 °FClear.5 mph84%29.89 "HgN/A
2:00 AM79 °FPassing clouds.5 mph84%29.89 "HgN/A
1:30 AM79 °FPassing clouds.5 mph84%29.89 "HgN/A
1:00 AM79 °FPassing clouds.6 mph84%29.92 "HgN/A
12:30 AM81 °FPassing clouds.8 mph79%29.92 "HgN/A
12:00 AM81 °FPassing clouds.8 mph79%29.92 "HgN/A
11:30 PM
Wed, Aug 31
81 °FPassing clouds.8 mph79%29.92 "HgN/A
11:00 PM81 °FPassing clouds.7 mph74%29.92 "HgN/A
10:30 PM81 °FPassing clouds.8 mph74%29.92 "HgN/A
10:00 PM82 °FPassing clouds.8 mph70%29.92 "HgN/A
9:30 PM82 °FClear.7 mph70%29.92 "Hg10 mi
8:30 PM82 °FClear.5 mph66%29.89 "Hg10 mi
7:30 PM82 °FClear.8 mph66%29.89 "Hg10 mi
7:00 PM84 °FSunny.12 mph58%29.86 "Hg10 mi
6:30 PM84 °FSunny.14 mph58%29.86 "Hg10 mi
6:00 PM86 °FSunny.15 mph55%29.86 "Hg10 mi
5:30 PM86 °FSunny.16 mph55%29.83 "Hg10 mi
5:00 PM88 °FSunny.14 mph52%29.86 "Hg10 mi
4:30 PM88 °FSunny.14 mph49%29.86 "Hg10 mi
3:30 PM90 °FSunny.17 mph43%29.86 "Hg10 mi
3:00 PM91 °FSunny.18 mph41%29.86 "Hg10 mi
2:30 PM91 °FSunny.18 mph41%29.86 "Hg10 mi
1:30 PM93 °FSunny.9 mph36%29.89 "Hg10 mi
1:00 PM91 °FSunny.14 mph36%29.92 "Hg10 mi
12:30 PM91 °FSunny.12 mph41%29.95 "Hg10 mi
12:00 PM90 °FScattered clouds.14 mph46%29.95 "HgN/A
11:30 AM90 °FPassing clouds.14 mph46%29.98 "HgN/A
10:30 AM88 °FPassing clouds.16 mph49%29.98 "HgN/A
10:00 AM86 °FPassing clouds.12 mph59%30.01 "HgN/A
9:30 AM84 °FScattered clouds.13 mph66%30.01 "HgN/A
9:00 AM82 °FScattered clouds.13 mph70%30.01 "HgN/A
8:30 AM81 °FPassing clouds.10 mph74%30.01 "HgN/A
8:00 AM81 °FPassing clouds.10 mph74%29.98 "HgN/A
7:30 AM79 °FScattered clouds.7 mph84%29.98 "HgN/A
7:00 AM77 °FPassing clouds.7 mph89%29.98 "HgN/A
Weather by CustomWeather, © 2016

See weather overviewHow to use our weather pages